Location: Malvern Link
(52.1333°N, 2.3000°W)
Time: 05:39:10
(UTC+00:00)

Envisat - Pass Details

Date: 21 January 2022
Orbit: 764 x 765 km, 98.2° (Epoch: 25 May)

Event Time Altitude Azimuth Distance (km) Brightness Sun altitude
Rises 07:20:19 0° 3° (N) 3,245 6.0 -6.9°
Reaches altitude 10° 07:23:50 10° 338° (NNW) 2,314 5.1 -6.4°
Maximum altitude 07:26:11 13° 310° (NW) 2,084 4.6 -6.0°
Drops below altitude 10° 07:28:31 10° 283° (WNW) 2,308 4.8 -5.7°
Sets 07:32:01 0° 257° (WSW) 3,230 5.8 -5.2°
